15 daagse weersverwachting Wiener Neustadt (AT)

  • Overzicht
  • Per uur
  • 15 dagen
  • Extra
  • Vergelijk
  • Kaarten
  • Dagkaart
  • Meer »
  • Info
  • Statistieken
  • Directe link
    Temp 6h Neerslag Wind  
 04:57     20:57    Daglengte: 16:00 Vandaag
14:00
29°
 
2
20:00
24°
 
2
 04:58     20:57    Daglengte: 15:59 Morgen
02:00
19°
1.8 mm
2
08:00
21°
0.7 mm
2
14:00
25°
3.3 mm
2
20:00
23°
1.2 mm
2
 04:58     20:57    Daglengte: 15:59 Zaterdag 22 Jun
02:00
19°
 
3
08:00
20°
3.5 mm
3
14:00
24°
4.5 mm
3
warningclass
20:00
20°
14.3 mm
2
 04:58     20:57    Daglengte: 15:59 Zondag 23 Jun
02:00
18°
87.8 mm
2
warningclass
08:00
18°
94.7 mm
2
Locatie info
Region: NiederŲsterreich
Latitude: 47.8129°N
Longitude: 16.2455°E
269 masl
Postcode: 2700
Temp/Neerslag /Baro Onweer/Dauwpunt
    Temp Baro 1h Neerslag Dauwpunt Wind UV Bewolking  
 04:57     20:57    Daglengte: 16:00 Vandaag
12:00
27°
1011.7 hPa   17.2°
2
Windvlaag: -0.8 km/h
37%
13:00
28°
1011.4 hPa   17.6°
2
Windvlaag: -0.7 km/h
21%
14:00
29°
1010.9 hPa
21%
18.3°
2
Windvlaag: -0.7 km/h
44%
15:00
28°
1010.7 hPa
28%
17.6°
2
Windvlaag: -0.7 km/h
38%
16:00
27°
1010.8 hPa
38%
16.7°
2
Windvlaag: -0.5 km/h
48%
17:00
27°
1010.6 hPa
22%
15.5°
1
Windvlaag: -0.1 km/h
34%
18:00
27°
1010.7 hPa
26%
16.1°
1
Windvlaag: 0.8 km/h
40%
19:00
26°
1011.0 hPa
72%
18.3°
2
Windvlaag: 2.2 km/h
38%
20:00
24°
1011.5 hPa
72%
18.1°
2
Windvlaag: 1.3 km/h
46%
21:00
22°
1012.0 hPa
70%
18.5°
1
Windvlaag: 1.1 km/h
35%
22:00
22°
1012.5 hPa
76%
18.4°
1
Windvlaag: 0.7 km/h
38%
23:00
21°
1013.0 hPa
33%
18.3°
1
Windvlaag: 1 km/h
34%
 04:58     20:57    Daglengte: 15:59 Morgen
00:00
20°
1013.5 hPa
82%
17.8°
2
Windvlaag: 1.2 km/h
28%
01:00
19°
1013.9 hPa 1.8 mm
82%
17.2°
2
Windvlaag: 1.2 km/h
64%
02:00
19°
1013.8 hPa
29%
16.8°
2
Windvlaag: 1.3 km/h
31%
03:00
18°
1013.7 hPa
16%
16.5°
2
Windvlaag: 1.2 km/h
19%
04:00
18°
1014.0 hPa
25%
15.8°
2
Windvlaag: 1.2 km/h
33%
05:00
18°
1014.2 hPa
63%
15.6°
2
Windvlaag: 1 km/h
34%
06:00
18°
1014.6 hPa
66%
15.6°
2
Windvlaag: 0.7 km/h
54%
07:00
20°
1015.0 hPa
27%
16.6°
1
Windvlaag: 1.3 km/h
37%
08:00
21°
1015.4 hPa 0.7 mm
25%
16.6°
2
Windvlaag: -0 km/h
33%
09:00
22°
1015.5 hPa 0.9 mm
29%
17.2°
2
Windvlaag: -0.5 km/h
39%
10:00
23°
1015.5 hPa
80%
16.9°
3
Windvlaag: -0.8 km/h
31%
11:00
24°
1015.6 hPa 0.6 mm
67%
16.6°
3
Windvlaag: -0.8 km/h
35%
12:00
25°
1015.5 hPa
70%
16.2°
3
Windvlaag: -0.6 km/h
60%
13:00
25°
1015.3 hPa 0.7 mm
32%
15.6°
3
Windvlaag: 0.5 km/h
64%
14:00
25°
1014.7 hPa 1.2 mm
81%
15.0°
2
Windvlaag: -1.1 km/h
72%
15:00
26°
1014.5 hPa
82%
14.6°
2
Windvlaag: -1 km/h
69%
16:00
26°
1014.3 hPa
76%
14.7°
3
Windvlaag: -1.3 km/h
70%
17:00
25°
1014.5 hPa 1.2 mm
30%
15.1°
3
Windvlaag: -1.4 km/h
70%
18:00
25°
1014.5 hPa
64%
16.2°
3
Windvlaag: -2 km/h
40%
19:00
24°
1015.0 hPa
18%
16.5°
3
Windvlaag: -2.4 km/h
39%
20:00
23°
1015.2 hPa
17%
17.2°
2
Windvlaag: -2.5 km/h
38%
21:00
22°
1015.6 hPa
15%
17.2°
2
Windvlaag: -2.3 km/h
47%
22:00
21°
1016.4 hPa
16%
17.3°
2
Windvlaag: -1.7 km/h
48%
23:00
20°
1016.9 hPa
27%
17.7°
2
Windvlaag: -2 km/h
45%
 04:58     20:57    Daglengte: 15:59 Zaterdag 22 Jun
00:00
19°
1016.9 hPa
24%
17.4°
2
Windvlaag: -2.5 km/h
47%
01:00
19°
1016.9 hPa
14%
16.6°
2
Windvlaag: -2.1 km/h
37%
02:00
19°
1017.1 hPa
14%
16.0°
3
Windvlaag: -2.1 km/h
57%
03:00
18°
1017.4 hPa
14%
16.0°
2
Windvlaag: -2.2 km/h
55%
04:00
18°
1017.3 hPa
14%
15.9°
2
Windvlaag: -2.3 km/h
81%
05:00
18°
1017.6 hPa
21%
15.7°
2
Windvlaag: -2.3 km/h
91%
06:00
18°
1017.9 hPa 1.3 mm
21%
16.0°
3
Windvlaag: -2.2 km/h
87%
07:00
19°
1018.1 hPa 1.2 mm
22%
16.7°
3
Windvlaag: -2 km/h
72%
08:00
20°
1018.3 hPa 1.1 mm
30%
16.8°
3
Windvlaag: -2 km/h
78%
09:00
20°
1018.1 hPa 1.5 mm
21%
17.1°
3
Windvlaag: -3.8 km/h
77%
10:00
21°
1017.9 hPa 1.5 mm
22%
17.4°
3
Windvlaag: -3.7 km/h
74%
11:00
22°
1017.7 hPa 1.5 mm
26%
17.7°
2
Windvlaag: -4 km/h
76%
12:00
23°
1017.4 hPa
28%
18.0°
3
Windvlaag: -4.2 km/h
86%
13:00
23°
1017.1 hPa
76%
18.3°
3
Windvlaag: -4.3 km/h
79%
14:00
24°
1016.7 hPa
93%
18.6°
3
Windvlaag: -2.5 km/h
83%
15:00
24°
1016.4 hPa
97%
18.7°
2
Windvlaag: -5 km/h
86%
16:00
23°
1016.2 hPa
95%
19.0°
3
Windvlaag: -4.4 km/h
90%
17:00
22°
1016.2 hPa 3.2 mm
99%
18.9°
3
Windvlaag: -2.4 km/h
91% warningclass
18:00
21°
1016.1 hPa 3.5 mm
100%
18.4°
2
Windvlaag: -4 km/h
94%
19:00
21°
1016.0 hPa 3.8 mm
100%
18.3°
2
Windvlaag: -3.8 km/h
93%
20:00
20°
1016.0 hPa 3.9 mm
100%
18.1°
2
Windvlaag: -1.3 km/h
92%
21:00
19°
1016.1 hPa 7.1 mm
100%
18.1°
2
Windvlaag: -2 km/h
96% warningclass
22:00
19°
1016.1 hPa 10.6 mm
100%
18.0°
2
Windvlaag: -1.8 km/h
100% warningclass
23:00
19°
1016.1 hPa 14.3 mm
100%
18.0°
2
Windvlaag: -1.7 km/h
100% warningclass
 04:58     20:57    Daglengte: 15:59 Zondag 23 Jun
00:00
18°
1016.2 hPa 18.0 mm
100%
17.9°
2
Windvlaag: -2.1 km/h
99% warningclass
01:00
18°
1016.0 hPa 18.7 mm
100%
17.9°
2
Windvlaag: -2.2 km/h
99% warningclass
02:00
18°
1016.0 hPa 19.0 mm
100%
17.8°
2
Windvlaag: -0.8 km/h
97% warningclass
03:00
18°
1016.1 hPa 19.5 mm
100%
17.8°
2
Windvlaag: 3.5 km/h
100% warningclass
04:00
18°
1016.1 hPa 19.2 mm
100%
17.6°
2
Windvlaag: 4.8 km/h
99% warningclass
05:00
18°
1016.2 hPa 19.0 mm
100%
17.4°
3
Windvlaag: 4.1 km/h
98%
06:00
18°
1016.4 hPa 18.8 mm
100%
17.4°
3
Windvlaag: 3.6 km/h
92%
07:00
18°
1016.5 hPa 18.4 mm
99%
17.5°
2
Windvlaag: 3.7 km/h
89%
08:00
18°
1016.6 hPa
83%
17.6°
2
Windvlaag: 0.4 km/h
86%
09:00
19°
1016.2 hPa 54.3 mm
100%
17.8°
3
Windvlaag: 3.2 km/h
83%
10:00
20°
1016.4 hPa 54.3 mm
100%
18.0°
3
Windvlaag: 1.7 km/h
78%
11:00
20°
1016.5 hPa 54.3 mm
100%
18.2°
3
Windvlaag: 1 km/h
75%
Temp/Neerslag /Baro Onweer/Dauwpunt
    Temp Baro Neerslag Dauwpunt Wind Bewolking  
 04:57     20:57    Daglengte: 16:00 Vandaag
14:00
29°
1010.9 hPa   18.3°
2
44%
17:00
27°
1010.6 hPa   15.5°
1
34%
20:00
24°
1011.5 hPa   18.1°
2
46%
23:00
21°
1013.0 hPa   18.3°
1
34%
 04:58     20:57    Daglengte: 15:59 Morgen
02:00
19°
1013.8 hPa 1.8 mm 16.8°
2
31%
05:00
18°
1014.2 hPa   15.6°
2
34%
08:00
21°
1015.4 hPa 0.7 mm 16.6°
2
33%
11:00
24°
1015.6 hPa 1.5 mm 16.6°
3
35%
14:00
25°
1014.7 hPa 1.8 mm 15.0°
2
72%
17:00
25°
1014.5 hPa 1.2 mm 15.1°
3
70%
20:00
23°
1015.2 hPa   17.2°
2
38%
23:00
20°
1016.9 hPa   17.7°
2
45%
 04:58     20:57    Daglengte: 15:59 Zaterdag 22 Jun
02:00
19°
1017.1 hPa   16.0°
3
57%
05:00
18°
1017.6 hPa   15.7°
2
91%
08:00
20°
1018.3 hPa 3.5 mm 16.8°
3
78%
11:00
22°
1017.7 hPa 4.5 mm 17.7°
2
76%
14:00
24°
1016.7 hPa   18.6°
3
83%
17:00
22°
1016.2 hPa 3.2 mm 18.9°
3
91% warningclass
20:00
20°
1016.0 hPa 11.2 mm 18.1°
2
92%
23:00
19°
1016.1 hPa 32.0 mm 18.0°
2
100% warningclass
 04:58     20:57    Daglengte: 15:59 Zondag 23 Jun
02:00
18°
1016.0 hPa 55.7 mm 17.8°
2
97% warningclass
05:00
18°
1016.2 hPa 57.6 mm 17.4°
3
98%
08:00
18°
1016.6 hPa 37.2 mm 17.6°
2
86%
11:00
20°
1016.5 hPa 163.0 mm 18.2°
3
75%
14:00
22°
1016.8 hPa 163.0 mm 18.6°
4
64%
17:00
21°
1017.7 hPa 48.9 mm 17.3°
4
82%
20:00
21°
1018.1 hPa 49.1 mm 16.8°
4
92%
23:00
20°
1019.0 hPa 49.1 mm 14.4°
4
91%
 04:58     20:57    Daglengte: 15:59 Maandag 24 Jun
02:00
20°
1019.7 hPa 49.1 mm 11.8°
4
91%
05:00
19°
1020.5 hPa 49.1 mm 11.7°
5
89%
08:00
20°
1021.5 hPa 49.1 mm 11.6°
5
87%
11:00
22°
1021.3 hPa 49.1 mm 13.4°
5
89%
14:00
25°
1021.1 hPa 49.1 mm 15.1°
5
92%
17:00
24°
1021.4 hPa 49.2 mm 15.2°
4
54%
20:00
23°
1021.7 hPa 49.4 mm 15.4°
3
16%
23:00
21°
1022.7 hPa 49.4 mm 14.4°
3
15%
 04:59     20:57    Daglengte: 15:58 Dinsdag 25 Jun
02:00
18°
1023.6 hPa 49.4 mm 13.3°
2
14%
05:00
19°
1024.0 hPa 49.4 mm 13.7°
3
13%
08:00
21°
1024.6 hPa 49.4 mm 14.0°
3
12%
11:00
24°
1024.4 hPa 49.4 mm 15.7°
3
6%
14:00
27°
1024.2 hPa 49.4 mm 17.2°
2
0%
17:00
26°
1023.8 hPa 49.4 mm 17.1°
2
1%
20:00
26°
1023.6 hPa 49.4 mm 17.1°
1
2%
23:00
22°
1024.3 hPa 49.4 mm 17.3°
1
2%
 04:59     20:57    Daglengte: 15:58 Woensdag 26 Jun
02:00
18°
1024.8 hPa 49.4 mm 16.7°
1
3%
05:00
20°
1024.9 hPa 49.4 mm 17.3°
1
5%
08:00
22°
1025.1 hPa 49.4 mm 17.9°
0
8%
11:00
26°
1024.5 hPa 49.4 mm 18.6°
2
19%
14:00
29°
1023.8 hPa 49.4 mm 18.8°
4
31%
17:00
28°
1022.9 hPa 49.4 mm 18.7°
3
15%
20:00
26°
1022.0 hPa 49.4 mm 18.4°
3
0%
23:00
23°
1021.9 hPa 49.4 mm 17.3°
2
0%
 05:00     20:57    Daglengte: 15:57 Donderdag 27 Jun
02:00
20°
1021.8 hPa 49.4 mm 16.1°
2
0%
05:00
22°
1021.0 hPa 49.4 mm 17.2°
2
0%
08:00
24°
1020.2 hPa 49.4 mm 18.6°
2
0%
11:00
28°
1019.1 hPa   19.0°
2
4%
14:00
31°
1018.0 hPa 98.9 mm 18.6°
1
8%
20:00
27°
1016.8 hPa 98.9 mm 19.9°
2
0%
 05:00     20:57    Daglengte: 15:57 Vrijdag 28 Jun
02:00
21°
1016.8 hPa 98.9 mm 18.8°
2
0%
08:00
28°
1015.9 hPa 98.9 mm 18.4°
2
0%
14:00
35°
1014.4 hPa 98.9 mm 17.4°
2
0%
20:00
31°
1013.1 hPa 98.9 mm 22.0°
2
2%
 05:01     20:57    Daglengte: 15:56 Zaterdag 29 Jun
02:00
24°
1012.8 hPa 98.9 mm 16.4°
3
0%
08:00
23°
1015.1 hPa 98.9 mm 15.2°
4
0%
14:00
30°
1013.6 hPa 98.9 mm 18.3°
5
0%
20:00
26°
1012.9 hPa 99.4 mm 20.3°
3
1%
 05:01     20:57    Daglengte: 15:56 Zondag 30 Jun
02:00
23°
1014.6 hPa 107.4 mm 20.1°
1
1%
08:00
23°
1014.9 hPa 2.1 mm 17.5°
1
28%
14:00
30°
1014.0 hPa 1.0 mm 17.2°
0
33%
20:00
26°
1013.4 hPa 1.9 mm 19.4°
0
45%
 05:02     20:57    Daglengte: 15:55 Maandag 01 Jul
02:00
20°
1014.0 hPa 1.8 mm 17.2°
1
40%
08:00
22°
1013.8 hPa 0.7 mm 17.9°
2
34%
14:00
28°
1012.3 hPa 1.7 mm 17.1°
1
34%
20:00
24°
1011.8 hPa 3.3 mm 18.6°
1
57%
 05:02     20:57    Daglengte: 15:55 Dinsdag 02 Jul
02:00
18°
1012.5 hPa 2.6 mm 16.2°
1
61%
08:00
20°
1012.6 hPa 3.3 mm 16.4°
2
55%
14:00
24°
1011.8 hPa 2.7 mm 16.2°
2
56%
20:00
22°
1011.6 hPa 2.3 mm 16.9°
1
68%
 05:03     20:56    Daglengte: 15:53 Woensdag 03 Jul
02:00
17°
1012.5 hPa 1.7 mm 14.5°
2
71%
08:00
18°
1013.0 hPa 3.6 mm 15.2°
2
67%
14:00
23°
1012.4 hPa 3.5 mm 15.1°
2
59%
20:00
21°
1012.1 hPa 1.2 mm 16.0°
1
62%
 05:04     20:56    Daglengte: 15:52 Donderdag 04 Jul
02:00
16°
1012.9 hPa 1.7 mm 13.6°
1
61%
08:00
18°
1013.7 hPa 1.4 mm 14.4°
3
41%
14:00
23°
1013.3 hPa 0.5 mm 14.1°
2
40%
20:00
21°
1013.3 hPa 1.2 mm 15.8°
1
62%
 05:05     20:56    Daglengte: 15:51 Vrijdag 05 Jul
02:00
16°
1014.5 hPa 0.5 mm 13.1°
2
47%
08:00
18°
1015.2 hPa 0.7 mm 14.2°
2
40%
  CAPE Lifted Index Hail Supercell Tornado SRH 3km CL BTM PRES CL TOP PRES Swiss DWD icon SMHI TS
 04:57     20:57    Daglengte: 16:00 Vandaag
12:00 678 J/kg -2.7 K 0 % 0 % 0 % 0 m²/s² 0 0 0.66 2
13:00 797 J/kg -3.1 K 0 % 0 % 0 % 0 m²/s² 0 0 0.44 2
14:00 850 J/kg -3.3 K 0 % 0 % 0 % 0 m²/s² 0 0 0.45 3
15:00 789 J/kg -3.2 K 0 % 0 % 0 % 0 m²/s² 0 0 0.76 3
16:00 796 J/kg -3.4 K 0 % 0 % 0 % 0 m²/s² 0 0 0.35 80
17:00 781 J/kg -3.4 K 0 % 0 % 0 % 0 m²/s² 0 0 -0.19 3
18:00 811 J/kg -3.8 K 0 % 0 % 0 % 0 m²/s² 0 0 -1.76 2
19:00 643 J/kg -3.9 K 0 % 0 % 0 % 0 m²/s² 0 0 -2.52 3
20:00 0 J/kg -2.2 K 0 % 0 % 0 % 0 m²/s² 0 0 -1.42 80
21:00 0 J/kg -2.0 K 0 % 0 % 0 % 0 m²/s² 0 0 -1.73 3
22:00 0 J/kg -3.2 K 0 % 0 % 0 % 0 m²/s² 0 0 -2.63 80
23:00 0 J/kg -2.2 K 0 % 0 % 0 % 0 m²/s² 0 0 -1.57 3
 04:58     20:57    Daglengte: 15:59 Morgen
00:00 0 J/kg -1.6 K 0 % 0 % 0 % 0 m²/s² 0 0 -0.58 80
01:00 0 J/kg -2.0 K 0 % 0 % 0 % 0 m²/s² 0 0 -0.8 81
02:00 0 J/kg -1.9 K 0 % 0 % 0 % 0 m²/s² 0 0 -0.73 3
03:00 0 J/kg -1.1 K 0 % 0 % 0 % 0 m²/s² 0 0 0.01 2
04:00 0 J/kg 0.4 K 0 % 0 % 0 % 0 m²/s² 0 0 1.36 2
05:00 0 J/kg 1.2 K 0 % 0 % 0 % 0 m²/s² 0 0 3.18 3
06:00 0 J/kg 0.7 K 0 % 0 % 0 % 0 m²/s² 0 0 3.19 3
07:00 0 J/kg 0.5 K 0 % 0 % 0 % 0 m²/s² 0 0 3.05 3
08:00 1 J/kg 0.1 K 0 % 0 % 0 % 0 m²/s² 0 0 2.65 2
09:00 21 J/kg -0.5 K 0 % 0 % 0 % 0 m²/s² 0 0 2.05 3
10:00 184 J/kg -1.1 K 0 % 0 % 0 % 0 m²/s² 0 0 1.45 2
11:00 359 J/kg -1.7 K 0 % 0 % 0 % 0 m²/s² 0 0 1.15 3
12:00 368 J/kg -1.6 K 0 % 0 % 0 % 0 m²/s² 0 0 1.58 3
13:00 442 J/kg -1.9 K 0 % 0 % 0 % 0 m²/s² 0 0 1.28 3
14:00 460 J/kg -1.7 K 0 % 0 % 0 % 0 m²/s² 0 0 1.57 3
15:00 418 J/kg -1.4 K 0 % 0 % 0 % 0 m²/s² 0 0 1.99 3
16:00 357 J/kg -1.1 K 0 % 0 % 0 % 0 m²/s² 0 0 2.47 3
17:00 384 J/kg -1.3 K 0 % 0 % 0 % 0 m²/s² 0 0 1.91 3
18:00 544 J/kg -2.1 K 0 % 0 % 0 % 0 m²/s² 0 0 0.51 3
19:00 657 J/kg -2.4 K 0 % 0 % 0 % 0 m²/s² 0 0 -0.15 3
20:00 757 J/kg -2.6 K 0 % 0 % 0 % 0 m²/s² 0 0 -0.92 3
21:00 712 J/kg -2.6 K 0 % 0 % 0 % 0 m²/s² 0 0 -1.73 3
22:00 15 J/kg -1.4 K 0 % 0 % 0 % 0 m²/s² 0 0 -0.59 3
23:00 0 J/kg 0.8 K 0 % 0 % 0 % 0 m²/s² 0 0 1.61 3
 04:58     20:57    Daglengte: 15:59 Zaterdag 22 Jun
00:00 0 J/kg 1.1 K 0 % 0 % 0 % 0 m²/s² 0 0 2.15 3
01:00 0 J/kg 0.5 K 0 % 0 % 0 % 0 m²/s² 0 0 0.71 3
02:00 0 J/kg 0.7 K 0 % 0 % 0 % 0 m²/s² 0 0 1.18 3
03:00 0 J/kg 0.1 K 0 % 0 % 0 % 0 m²/s² 0 0 0.67 2
04:00 0 J/kg 0.6 K 0 % 0 % 0 % 0 m²/s² 0 0 1.14 3
05:00 0 J/kg 0.4 K 0 % 0 % 0 % 0 m²/s² 0 0 1.36 3
06:00 0 J/kg -0.1 K 0 % 0 % 0 % 0 m²/s² 0 0 1.28 3
07:00 28 J/kg -0.8 K 0 % 0 % 0 % 0 m²/s² 0 0 0.52 3
08:00 58 J/kg -1.5 K 0 % 0 % 0 % 0 m²/s² 0 0 0.18 3
09:00 344 J/kg -3.3 K 0 % 0 % 0 % 0 m²/s² 0 0 -1.44 3
10:00 766 J/kg -3.7 K 0 % 0 % 0 % 0 m²/s² 0 0 -1.66 2
11:00 1185 J/kg -4.1 K 0 % 0 % 0 % 0 m²/s² 0 0 -2 2
12:00 1333 J/kg -4.5 K 0 % 0 % 0 % 0 m²/s² 0 0 -2.25 3
13:00 1441 J/kg -4.6 K 0 % 0 % 0 % 0 m²/s² 0 0 -2.56 2
14:00 1783 J/kg -5.4 K 0 % 0 % 0 % 0 m²/s² 0 0 -3.42 2
15:00 1847 J/kg -5.8 K 0 % 0 % 0 % 0 m²/s² 0 0 -3.82 3
16:00 1618 J/kg -5.3 K 0 % 0 % 0 % 0 m²/s² 0 0 -5.12 3
17:00 791 J/kg -2.9 K 0 % 0 % 0 % 0 m²/s² 0 0 -2.03 3
18:00 35 J/kg 0.7 K 0 % 0 % 0 % 0 m²/s² 0 0 1.09 80
19:00 0 J/kg -1.3 K 0 % 0 % 0 % 0 m²/s² 0 0 -1.27 80
20:00 0 J/kg -1.7 K 0 % 0 % 0 % 0 m²/s² 0 0 -1.7 80
21:00 0 J/kg -0.6 K 0 % 0 % 0 % 0 m²/s² 0 0 -0.6 95
22:00 0 J/kg -0.4 K 0 % 0 % 0 % 0 m²/s² 0 0 -0.37 95
23:00 0 J/kg 0.1 K 0 % 0 % 0 % 0 m²/s² 0 0 0.22 95
 04:58     20:57    Daglengte: 15:59 Zondag 23 Jun
00:00 0 J/kg 1.1 K 0 % 0 % 0 % 0 m²/s² 0 0 1.19 95
01:00 0 J/kg 0.7 K 0 % 0 % 0 % 0 m²/s² 0 0 1.72 95
02:00 2 J/kg 0.7 K 0 % 0 % 0 % 0 m²/s² 0 0 1.6 95
03:00 18 J/kg 1.5 K 0 % 0 % 0 % 0 m²/s² 0 0 1.68 95
04:00 0 J/kg 0.3 K 0 % 0 % 0 % 0 m²/s² 0 0 1.68 95
05:00 0 J/kg 0.0 K 0 % 0 % 0 % 0 m²/s² 0 0 1.23 80
06:00 0 J/kg 1.2 K 0 % 0 % 0 % 0 m²/s² 0 0 1.83 80
07:00 14 J/kg 1.3 K 0 % 0 % 0 % 0 m²/s² 0 0 2.92 80
08:00 51 J/kg 1.1 K 0 % 0 % 0 % 0 m²/s² 0 0 2.42 3
09:00 74 J/kg 1.9 K 0 % 0 % 0 % 0 m²/s² 0 0 2.95
10:00 104 J/kg 0.7 K 0 % 0 % 0 % 0 m²/s² 0 0 1.96
11:00 135 J/kg 0.0 K 0 % 0 % 0 % 0 m²/s² 0 0 1.26
Temp Baro Wind Neerslag
  EWN Forecast EWN WRFDA DWD ICON FMI HIRLAM MET Norway GFS
 04:57     20:57    Daglengte: 16:00 Vandaag
14:00 28.6° 1010.9 hPa 2.1 m/s 0.0 mm 27.3° 1011.6 hPa 1.3 m/s 0.0 mm 29.1° 1010.9 hPa 2.0 m/s 0.0 mm 30.0° 1009.9 hPa 3.6 m/s 0.0 mm 25.8° 1011.5 hPa 1.3 m/s 0.9 mm 29.5° 1011.3 hPa 2.5 m/s
17:00 27.3° 1010.6 hPa 1.0 m/s 0.0 mm 28.3° 1010.4 hPa 1.0 m/s 0.0 mm 27.0° 1010.4 hPa 1.8 m/s 0.7 mm 27.8° 1010.0 hPa 1.5 m/s 0.0 mm 27.5° 1010.9 hPa 0.8 m/s 0.0 mm 28.5° 1010.3 hPa 3.3 m/s
20:00 24.2° 1011.5 hPa 2.4 m/s 0.0 mm 20.3° 1011.3 hPa 4.6 m/s 1.5 mm 24.1° 1012.1 hPa 4.3 m/s 0.2 mm 26.7° 1010.1 hPa 2.1 m/s 0.0 mm 24.1° 1012.0 hPa 2.1 m/s 0.0 mm 21.9° 1012.0 hPa 4.0 m/s
23:00 21.1° 1013.0 hPa 1.2 m/s 0.0 mm 19.4° 1013.0 hPa 2.7 m/s 3.7 mm 19.5° 1013.3 hPa 0.6 m/s 0.7 mm 22.5° 1011.7 hPa 2.1 m/s 0.0 mm 21.2° 1013.4 hPa 0.4 m/s 0.0 mm 18.3° 1013.6 hPa 3.8 m/s
 04:58     20:57    Daglengte: 15:59 Morgen
02:00 18.7° 1013.8 hPa 1.9 m/s 1.8 mm 17.6° 1014.0 hPa 2.6 m/s 5.8 mm 18.2° 1014.1 hPa 2.1 m/s 3.5 mm 19.2° 1012.0 hPa 1.5 m/s 0.0 mm 18.6° 1014.3 hPa 1.9 m/s 1.4 mm 18.6° 1014.9 hPa 1.5 m/s
05:00 17.8° 1014.2 hPa 1.7 m/s 0.0 mm 15.9° 1013.8 hPa 0.8 m/s 6.8 mm 16.9° 1014.7 hPa 0.7 m/s 0.1 mm 17.4° 1012.9 hPa 1.2 m/s 0.0 mm 18.4° 1014.7 hPa 4.1 m/s 0.0 mm 18.4° 1015.1 hPa 2.6 m/s
08:00 21.0° 1015.4 hPa 2.0 m/s 0.7 mm 20.6° 1015.0 hPa 4.1 m/s 6.9 mm 20.7° 1015.8 hPa 1.1 m/s 0.0 mm 23.0° 1013.8 hPa 1.9 m/s 0.0 mm 20.6° 1016.5 hPa 2.8 m/s 1.1 mm 20.6° 1016.1 hPa 2.2 m/s
11:00 24.2° 1015.6 hPa 3.0 m/s 1.5 mm 24.2° 1015.2 hPa 3.1 m/s 6.9 mm 24.0° 1015.9 hPa 3.9 m/s 0.1 mm 24.8° 1014.8 hPa 6.4 m/s 0.0 mm 23.9° 1016.5 hPa 2.3 m/s 0.9 mm 25.3° 1015.9 hPa 3.4 m/s
14:00 25.4° 1014.7 hPa 2.4 m/s 1.8 mm 26.7° 1014.6 hPa 3.0 m/s 6.9 mm 25.0° 1015.7 hPa 3.5 m/s 0.1 mm 25.2° 1014.1 hPa 7.5 m/s 0.0 mm 25.7° 1014.8 hPa 0.7 m/s 0.3 mm 27.8° 1015.0 hPa 3.0 m/s
17:00 24.8° 1014.5 hPa 2.7 m/s 1.2 mm 27.6° 1013.7 hPa 1.4 m/s 6.9 mm 25.1° 1014.9 hPa 3.6 m/s 0.1 mm 26.4° 1014.0 hPa 5.6 m/s 0.0 mm 24.2° 1014.5 hPa 1.6 m/s 0.8 mm 26.1° 1014.5 hPa 1.6 m/s
20:00 23.5° 1015.2 hPa 2.3 m/s 0.0 mm 26.1° 1014.0 hPa 1.2 m/s 7.1 mm 22.5° 1016.1 hPa 2.2 m/s 0.0 mm 24.0° 1014.5 hPa 4.0 m/s 0.0 mm 23.4° 1015.2 hPa 1.0 m/s 0.0 mm 22.9° 1014.7 hPa 1.8 m/s
23:00 19.7° 1016.9 hPa 2.0 m/s 0.0 mm 19.3° 1016.8 hPa 6.2 m/s 8.8 mm 19.2° 1017.5 hPa 1.0 m/s 0.0 mm 19.3° 1016.3 hPa 1.7 m/s 0.0 mm 20.0° 1016.7 hPa 1.5 m/s 0.0 mm 20.1° 1016.5 hPa 1.7 m/s
 04:58     20:57    Daglengte: 15:59 Zaterdag 22 Jun
02:00 18.6° 1017.1 hPa 2.5 m/s 0.0 mm 18.6° 1016.2 hPa 2.0 m/s 11.9 mm 18.0° 1017.9 hPa 0.9 m/s 0.0 mm 17.3° 1016.1 hPa 2.3 m/s 0.0 mm 18.9° 1017.2 hPa 2.9 m/s 0.0 mm 18.7° 1016.6 hPa 1.6 m/s
05:00 17.8° 1017.6 hPa 1.9 m/s 0.0 mm 18.5° 1016.3 hPa 1.7 m/s 12.7 mm 16.5° 1018.7 hPa 0.8 m/s 0.0 mm 17.7° 1017.5 hPa 1.8 m/s 1.1 mm 18.5° 1016.4 hPa 1.6 m/s
08:00 19.8° 1018.3 hPa 2.8 m/s 3.5 mm 21.5° 1016.9 hPa 1.5 m/s 12.9 mm 20.4° 1019.4 hPa 2.5 m/s 0.0 mm 19.7° 1018.3 hPa 2.9 m/s 1.5 mm 20.5° 1017.1 hPa 1.9 m/s
11:00 21.9° 1017.7 hPa 2.3 m/s 4.5 mm 24.9° 1016.9 hPa 1.9 m/s 12.9 mm 23.7° 1019.0 hPa 4.3 m/s 0.0 mm 21.7° 1017.5 hPa 1.9 m/s 22.9° 1016.0 hPa 2.7 m/s
14:00 23.8° 1016.7 hPa 2.6 m/s 0.0 mm 25.9° 1015.2 hPa 3.2 m/s 13.8 mm 26.3° 1017.6 hPa 2.8 m/s 0.0 mm 23.7° 1016.7 hPa 1.0 m/s 25.1° 1014.6 hPa 2.4 m/s
17:00 22.0° 1016.2 hPa 3.1 m/s 3.2 mm 21.1° 1014.8 hPa 5.7 m/s 21.8 mm 25.0° 1016.1 hPa 4.2 m/s 0.2 mm 21.8° 1016.4 hPa 1.5 m/s 26.2° 1013.3 hPa 2.2 m/s
20:00 20.0° 1016.0 hPa 2.0 m/s 11.2 mm 19.3° 1014.9 hPa 3.5 m/s 30.6 mm 21.4° 1016.9 hPa 0.8 m/s 1.4 mm 19.9° 1016.0 hPa 2.0 m/s 21.8° 1013.4 hPa 1.9 m/s
23:00 18.8° 1016.1 hPa 1.9 m/s 32.0 mm 17.4° 1014.8 hPa 3.0 m/s 86.7 mm 18.9° 1017.1 hPa 1.1 m/s 4.7 mm 18.9° 1016.1 hPa 1.9 m/s 19.8° 1014.2 hPa 1.3 m/s
 04:58     20:57    Daglengte: 15:59 Zondag 23 Jun
02:00 18.0° 1016.0 hPa 1.7 m/s 55.7 mm 16.9° 1013.6 hPa 1.8 m/s 155.5 mm 18.4° 1017.0 hPa 1.2 m/s 5.9 mm 17.9° 1016.2 hPa 1.9 m/s 18.7° 1014.5 hPa 1.1 m/s
05:00 17.6° 1016.2 hPa 2.6 m/s 57.6 mm 16.8° 1012.4 hPa 3.2 m/s 161.6 mm 17.3° 1017.6 hPa 2.5 m/s 5.6 mm 17.9° 1016.4 hPa 2.5 m/s 18.4° 1014.9 hPa 2.2 m/s
08:00 18.1° 1016.6 hPa 2.4 m/s 37.2 mm 19.2° 1013.4 hPa 0.8 m/s 162.6 mm 18.0° 1019.0 hPa 1.8 m/s 1.6 mm 18.0° 1016.6 hPa 3.1 m/s 19.4° 1015.9 hPa 4.2 m/s
11:00 20.2° 1016.5 hPa 3.4 m/s 163.0 mm 22.4° 1014.1 hPa 1.0 m/s 163.0 mm 19.8° 1016.9 hPa 3.8 m/s 19.7° 1017.1 hPa 4.1 m/s
14:00 22.0° 1016.8 hPa 4.4 m/s 163.0 mm 24.7° 1014.7 hPa 2.9 m/s 163.0 mm 21.6° 1017.2 hPa 4.6 m/s 22.2° 1017.2 hPa 5.0 m/s
17:00 21.1° 1017.7 hPa 4.5 m/s 48.9 mm 21.1° 1017.7 hPa 4.5 m/s 20.9° 1017.1 hPa 4.7 m/s 48.9 mm
20:00 20.8° 1018.1 hPa 4.3 m/s 49.1 mm 20.9° 1018.0 hPa 4.4 m/s 20.1° 1018.7 hPa 3.3 m/s 49.1 mm
23:00 20.2° 1019.0 hPa 4.3 m/s 49.1 mm 20.4° 1018.8 hPa 4.3 m/s 18.4° 1020.8 hPa 4.1 m/s 49.1 mm
 04:58     20:57    Daglengte: 15:59 Maandag 24 Jun
02:00 19.6° 1019.7 hPa 4.2 m/s 49.1 mm 19.9° 1019.6 hPa 4.3 m/s 16.9° 1021.3 hPa 3.6 m/s 49.1 mm
05:00 19.4° 1020.5 hPa 4.6 m/s 49.1 mm 19.7° 1020.5 hPa 4.7 m/s 16.3° 1021.1 hPa 3.4 m/s 49.1 mm
08:00 19.5° 1021.5 hPa 5.0 m/s 49.1 mm 19.5° 1021.4 hPa 5.1 m/s 19.6° 1022.1 hPa 4.0 m/s 49.1 mm
11:00 22.1° 1021.3 hPa 5.3 m/s 49.1 mm 22.1° 1021.2 hPa 5.3 m/s 22.9° 1022.3 hPa 5.2 m/s 49.1 mm
14:00 24.6° 1021.1 hPa 5.5 m/s 49.1 mm 24.6° 1021.1 hPa 5.5 m/s 25.0° 1021.5 hPa 5.1 m/s 49.1 mm
17:00 24.0° 1021.4 hPa 4.4 m/s 49.2 mm 23.9° 1021.4 hPa 4.4 m/s 25.5° 1021.2 hPa 4.7 m/s 49.2 mm
20:00 23.2° 1021.7 hPa 3.3 m/s 49.4 mm 23.2° 1021.7 hPa 3.3 m/s 22.7° 1022.1 hPa 3.3 m/s 49.4 mm
23:00 20.7° 1022.7 hPa 2.8 m/s 49.4 mm 20.8° 1022.6 hPa 2.8 m/s 20.0° 1024.1 hPa 2.7 m/s 49.4 mm
 04:59     20:57    Daglengte: 15:58 Dinsdag 25 Jun
02:00 18.3° 1023.6 hPa 2.4 m/s 49.4 mm 18.3° 1023.5 hPa 2.4 m/s 18.8° 1024.4 hPa 2.6 m/s 49.4 mm
05:00 19.4° 1024.0 hPa 2.6 m/s 49.4 mm 19.5° 1024.0 hPa 2.6 m/s 17.8° 1024.1 hPa 2.1 m/s 49.4 mm
08:00 20.8° 1024.6 hPa 2.9 m/s 49.4 mm 20.7° 1024.6 hPa 2.9 m/s 21.7° 1024.7 hPa 2.4 m/s 49.4 mm
11:00 23.7° 1024.4 hPa 2.7 m/s 49.4 mm 23.5° 1024.4 hPa 2.6 m/s 25.7° 1024.5 hPa 4.0 m/s 49.4 mm
14:00 26.6° 1024.2 hPa 2.4 m/s 49.4 mm 26.4° 1024.2 hPa 2.3 m/s 28.3° 1024.0 hPa 4.0 m/s 49.4 mm
17:00 26.4° 1023.8 hPa 1.6 m/s 49.4 mm 26.2° 1023.9 hPa 1.4 m/s 28.3° 1023.2 hPa 4.2 m/s 49.4 mm
20:00 25.8° 1023.6 hPa 0.7 m/s 49.4 mm 26.0° 1023.5 hPa 0.5 m/s 24.1° 1024.3 hPa 3.2 m/s 49.4 mm
23:00 22.0° 1024.3 hPa 1.1 m/s 49.4 mm 22.1° 1024.1 hPa 0.9 m/s 20.2° 1026.2 hPa 2.2 m/s 49.4 mm
 04:59     20:57    Daglengte: 15:58 Woensdag 26 Jun
02:00 18.3° 1024.8 hPa 1.5 m/s 49.4 mm 18.3° 1024.7 hPa 1.4 m/s 18.6° 1026.1 hPa 2.3 m/s 49.4 mm
05:00 20.2° 1024.9 hPa 0.9 m/s 49.4 mm 20.4° 1024.8 hPa 0.8 m/s 17.8° 1025.9 hPa 2.2 m/s 49.4 mm
08:00 22.5° 1025.1 hPa 0.3 m/s 49.4 mm 22.5° 1025.0 hPa 0.1 m/s 22.2° 1025.9 hPa 2.5 m/s 49.4 mm
11:00 25.8° 1024.5 hPa 2.1 m/s 49.4 mm 25.8° 1024.4 hPa 1.9 m/s 26.1° 1025.4 hPa 4.3 m/s 49.4 mm
14:00 29.0° 1023.8 hPa 3.6 m/s 49.4 mm 29.0° 1023.8 hPa 3.6 m/s 28.8° 1024.3 hPa 3.8 m/s 49.4 mm
17:00 27.6° 1022.9 hPa 3.3 m/s 49.4 mm 27.5° 1022.8 hPa 3.2 m/s 28.5° 1023.0 hPa 3.9 m/s 49.4 mm
20:00 25.9° 1022.0 hPa 2.8 m/s 49.4 mm 26.0° 1021.9 hPa 2.9 m/s 24.3° 1022.9 hPa 2.1 m/s 49.4 mm
23:00 23.0° 1021.9 hPa 2.4 m/s 49.4 mm 23.2° 1021.8 hPa 2.5 m/s 20.6° 1024.0 hPa 1.5 m/s 49.4 mm
 05:00     20:57    Daglengte: 15:57 Donderdag 27 Jun
02:00 20.3° 1021.8 hPa 2.0 m/s 49.4 mm 20.4° 1021.6 hPa 2.0 m/s 19.1° 1023.9 hPa 1.7 m/s 49.4 mm
05:00 22.1° 1021.0 hPa 1.9 m/s 49.4 mm 22.4° 1020.8 hPa 2.0 m/s 17.8° 1023.2 hPa 0.9 m/s 49.4 mm
08:00 24.3° 1020.2 hPa 1.9 m/s 49.4 mm 24.5° 1019.9 hPa 2.0 m/s 22.1° 1023.2 hPa 0.5 m/s 49.4 mm
11:00 27.9° 1019.1 hPa 1.7 m/s 49.4 mm 28.0° 1018.8 hPa 1.6 m/s 26.7° 1022.6 hPa 1.9 m/s 49.4 mm
14:00 31.3° 1018.0 hPa 1.4 m/s 49.4 mm 31.5° 1017.7 hPa 1.3 m/s 28.9° 1021.3 hPa 3.0 m/s 49.4 mm
20:00 27.4° 1016.8 hPa 2.2 m/s 49.4 mm 27.6° 1016.5 hPa 2.2 m/s 24.9° 1019.8 hPa 1.7 m/s 49.4 mm
 05:00     20:57    Daglengte: 15:57 Vrijdag 28 Jun
02:00 20.7° 1016.8 hPa 2.0 m/s 49.4 mm 20.8° 1016.5 hPa 2.1 m/s 19.9° 1020.3 hPa 1.3 m/s 49.4 mm
08:00 27.8° 1015.9 hPa 1.9 m/s 49.4 mm 28.2° 1015.6 hPa 2.0 m/s 23.6° 1019.1 hPa 0.8 m/s 49.4 mm
14:00 35.1° 1014.4 hPa 2.0 m/s 49.4 mm 35.5° 1014.2 hPa 1.8 m/s 30.2° 1016.9 hPa 4.6 m/s 49.4 mm
20:00 30.9° 1013.1 hPa 2.1 m/s 49.4 mm 31.4° 1012.8 hPa 1.9 m/s 25.0° 1016.0 hPa 4.0 m/s 49.4 mm
 05:01     20:57    Daglengte: 15:56 Zaterdag 29 Jun
02:00 23.5° 1012.8 hPa 3.1 m/s 49.4 mm 23.8° 1012.5 hPa 3.1 m/s 20.2° 1016.3 hPa 3.2 m/s 49.4 mm
08:00 23.0° 1015.1 hPa 4.5 m/s 49.4 mm 23.0° 1015.1 hPa 4.5 m/s 49.4 mm
14:00 30.4° 1013.6 hPa 5.0 m/s 49.4 mm 30.4° 1013.6 hPa 5.0 m/s 49.4 mm
20:00 26.0° 1012.9 hPa 2.7 m/s 50.0 mm 26.0° 1012.9 hPa 2.7 m/s 50.0 mm
 05:01     20:57    Daglengte: 15:56 Zondag 30 Jun
02:00 22.8° 1014.6 hPa 1.4 m/s 55.9 mm 22.8° 1014.6 hPa 1.4 m/s 55.9 mm
08:00 22.7° 1014.9 hPa 1.2 m/s 2.1 mm
14:00 29.7° 1014.0 hPa 0.4 m/s 1.0 mm
20:00 26.1° 1013.4 hPa 0.2 m/s 1.9 mm
 05:02     20:57    Daglengte: 15:55 Maandag 01 Jul
02:00 20.0° 1014.0 hPa 1.3 m/s 1.8 mm
08:00 22.4° 1013.8 hPa 1.5 m/s 0.7 mm
14:00 28.4° 1012.3 hPa 1.1 m/s 1.7 mm
20:00 24.3° 1011.8 hPa 1.3 m/s 3.3 mm
 05:02     20:57    Daglengte: 15:55 Dinsdag 02 Jul
02:00 18.5° 1012.5 hPa 1.4 m/s 2.6 mm
08:00 19.7° 1012.6 hPa 2.0 m/s 3.3 mm
14:00 24.1° 1011.8 hPa 2.2 m/s 2.7 mm
20:00 21.9° 1011.6 hPa 1.4 m/s 2.3 mm
 05:03     20:56    Daglengte: 15:53 Woensdag 03 Jul
02:00 16.9° 1012.5 hPa 1.8 m/s 1.7 mm
08:00 18.1° 1013.0 hPa 2.3 m/s 3.6 mm
14:00 22.6° 1012.4 hPa 1.8 m/s 3.5 mm
20:00 20.9° 1012.1 hPa 1.1 m/s 1.2 mm
 05:04     20:56    Daglengte: 15:52 Donderdag 04 Jul
02:00 15.8° 1012.9 hPa 1.1 m/s 1.7 mm
08:00 18.1° 1013.7 hPa 2.5 m/s 1.4 mm
14:00 23.3° 1013.3 hPa 2.1 m/s 0.5 mm
20:00 20.9° 1013.3 hPa 1.1 m/s 1.2 mm
 05:05     20:56    Daglengte: 15:51 Vrijdag 05 Jul
02:00 15.6° 1014.5 hPa 1.6 m/s 0.5 mm
08:00 18.2° 1015.2 hPa 2.0 m/s 0.7 mm
FMI Hirlam - 7.5 km EWN WRFDA - 12 km DWD ICON - 7 km GFS - 25 km Basiskaart